Weather History for KYNG - September, 2012

Change the Weather History Date:

Thursday, September 27, 2012

  Actual Average Record
Temperature  
Mean Temperature 56 °F 58 °F  
Max Temperature 62 °F 68 °F 86 °F (1934)
Min Temperature 50 °F 47 °F 29 °F (1957)
Degree Days  
Heating Degree Days 9 8  
Month to date heating degree days 148 119  
Since 1 July heating degree days 154 157  
Cooling Degree Days 0 1  
Month to date cooling degree days 64 49  
Year to date cooling degree days 758 535  
Growing Degree Days 4 (Base 50)    
Moisture  
Dew Point 52 °F    
Average Humidity 86    
Maximum Humidity 100    
Minimum Humidity 72    
Precipitation  
Precipitation 0.05 in 0.12 in 1.15 in (2002)
Month to date precipitation 4.74 3.40  
Year to date precipitation 33.18 29.62  
Snow  
Snow 0.00 in 0.00 in - ()
Month to date snowfall 0.0 0.0  
Since 1 July snowfall T 0.0  
Since 1 September snowfall 0.0 0.0  
Snow Depth 0.00 in    
Sea Level Pressure  
Sea Level Pressure 30.15 in    
Wind  
Wind Speed 7 mph (North)    
Max Wind Speed 14 mph    
Max Gust Speed 17 mph    
Visibility 7 miles    
Events Rain    
T = Trace of Precipitation, MM = Missing Value Source: NWS Daily Summary

Daily Weather History Graph

Daily Weather History Graph

Search for Another Location

Airport or City:

Trip Planner

Search our weather history database for the weather conditions in past years. The results will help you decide how hot, cold, wet, or windy it might be!

Date:

Astronomy

Sep. 27, 2012 Rise Set
Actual Time 7:15 AM EDT 7:10 PM EDT
Civil Twilight 6:48 AM EDT 7:37 PM EDT
Nautical Twilight 6:16 AM EDT 8:10 PM EDT
Astronomical Twilight 5:43 AM EDT 8:42 PM EDT
Moon 5:42 PM EDT (9/27) 4:42 AM EDT (9/27)
Length of Visible Light 12h 49m
Length of Day
11h 54m
Waxing Gibbous, 94% of the Moon is Illuminated
Sep 27
Waxing Gibbous
Sep 29
Full
Oct 8
Last Quarter
Oct 15
New
Oct 21
First Quarter

Hourly Weather History & Observations

Time (EDT) Temp. Dew Point Humidity Pressure Visibility Wind Dir Wind Speed Gust Speed Precip Events Conditions
12:14 AM 60.8 °F 60.8 °F 100% 30.12 in 2.5 mi West 4.6 mph - N/A   Mostly Cloudy
12:51 AM 61.0 °F 61.0 °F 100% 30.11 in 2.5 mi WNW 4.6 mph - N/A   Overcast
1:00 AM 62.6 °F 60.8 °F 94% 30.12 in 2.0 mi WNW 4.6 mph - N/A   Overcast
1:10 AM 62.6 °F 60.8 °F 94% 30.12 in 2.0 mi NW 8.1 mph - N/A   Overcast
1:51 AM 61.0 °F 59.0 °F 93% 30.13 in 2.0 mi North 9.2 mph - N/A   Overcast
2:40 AM 57.2 °F 53.6 °F 88% 30.12 in 3.0 mi NNE 13.8 mph - N/A   Overcast
2:51 AM 57.0 °F 54.0 °F 89% 30.12 in 4.0 mi NNE 9.2 mph - N/A   Overcast
3:51 AM 54.0 °F 53.1 °F 97% 30.14 in 4.0 mi NNE 4.6 mph - N/A   Mostly Cloudy
4:51 AM 54.0 °F 52.0 °F 93% 30.15 in 4.0 mi NE 5.8 mph - N/A   Mostly Cloudy
5:51 AM 52.0 °F 50.0 °F 93% 30.18 in 10.0 mi Calm Calm - N/A   Mostly Cloudy
6:51 AM 50.0 °F 48.0 °F 93% 30.19 in 10.0 mi NE 5.8 mph - N/A   Mostly Cloudy
7:51 AM 51.1 °F 48.0 °F 89% 30.20 in 10.0 mi NE 8.1 mph - N/A   Overcast
8:51 AM 52.0 °F 48.9 °F 89% 30.21 in 10.0 mi ENE 8.1 mph - N/A   Overcast
9:51 AM 54.0 °F 50.0 °F 86% 30.22 in 10.0 mi ENE 6.9 mph - N/A   Overcast
10:51 AM 55.0 °F 51.1 °F 86% 30.21 in 10.0 mi ENE 6.9 mph - 0.00 in Rain Light Rain
11:51 AM 57.0 °F 51.1 °F 81% 30.20 in 10.0 mi NE 6.9 mph - 0.00 in   Overcast
12:51 PM 57.9 °F 51.1 °F 78% 30.18 in 10.0 mi NNE 8.1 mph - N/A   Overcast
1:51 PM 57.9 °F 51.1 °F 78% 30.17 in 10.0 mi NNE 4.6 mph - N/A   Overcast
2:51 PM 57.0 °F 50.0 °F 77% 30.16 in 10.0 mi NNE 9.2 mph - N/A   Overcast
3:51 PM 57.0 °F 50.0 °F 77% 30.14 in 10.0 mi NNE 8.1 mph - N/A   Overcast
4:41 PM 57.2 °F 48.2 °F 72% 30.13 in 10.0 mi NNE 8.1 mph - N/A   Overcast
4:51 PM 57.0 °F 48.0 °F 72% 30.14 in 10.0 mi NNE 9.2 mph - N/A   Overcast
5:51 PM 57.0 °F 48.0 °F 72% 30.13 in 10.0 mi NE 8.1 mph - N/A   Overcast
6:51 PM 57.0 °F 48.0 °F 72% 30.13 in 10.0 mi North 3.5 mph - N/A   Overcast
7:51 PM 55.9 °F 48.9 °F 77% 30.13 in 10.0 mi NNE 5.8 mph - N/A   Overcast
8:51 PM 55.0 °F 50.0 °F 83% 30.14 in 10.0 mi NNW 4.6 mph - N/A   Overcast
9:09 PM 53.6 °F 51.8 °F 94% 30.14 in 8.0 mi WNW 3.5 mph - 0.00 in   Light Drizzle
9:31 PM 53.6 °F 51.8 °F 94% 30.14 in 2.0 mi NW 6.9 mph - 0.01 in Rain Light Rain
9:51 PM 53.1 °F 52.0 °F 96% 30.16 in 2.0 mi NW 8.1 mph - 0.02 in Rain Light Rain
10:09 PM 53.6 °F 51.8 °F 94% 30.15 in 2.0 mi NW 8.1 mph - 0.01 in Rain Light Rain
10:51 PM 53.1 °F 52.0 °F 96% 30.15 in 2.0 mi North 8.1 mph - 0.03 in Rain Light Rain
11:39 PM 53.6 °F 51.8 °F 94% 30.13 in 5.0 mi North 5.8 mph - 0.00 in   Overcast
11:51 PM 53.1 °F 52.0 °F 96% 30.14 in 10.0 mi NNE 5.8 mph - 0.00 in   Overcast